TimeCDT,TemperatureF,Dew PointF,Humidity,Sea Level PressureIn,VisibilityMPH,Wind Direction,Wind SpeedMPH,Gust SpeedMPH,PrecipitationIn,Events,Conditions,WindDirDegrees,DateUTC
12:52 AM,69.1,63.0,81,30.00,10.0,SE,4.6,-,N/A,,Clear,140,2013-07-06 05:52:00
1:52 AM,66.9,63.0,87,30.00,10.0,SE,3.5,-,N/A,,Clear,140,2013-07-06 06:52:00
2:52 AM,66.9,63.0,87,30.00,10.0,Calm,Calm,-,N/A,,Clear,0,2013-07-06 07:52:00
3:52 AM,64.9,62.1,90,30.00,10.0,SE,4.6,-,N/A,,Clear,130,2013-07-06 08:52:00
4:52 AM,64.9,62.1,90,30.00,10.0,SE,3.5,-,N/A,,Clear,130,2013-07-06 09:52:00
5:52 AM,64.0,62.1,93,30.00,8.0,Calm,Calm,-,N/A,,Clear,0,2013-07-06 10:52:00
6:52 AM,66.0,63.0,90,30.01,8.0,SE,6.9,-,N/A,,Clear,130,2013-07-06 11:52:00
7:52 AM,70.0,66.0,87,30.02,10.0,SE,6.9,-,N/A,,Clear,140,2013-07-06 12:52:00
8:52 AM,73.9,66.0,76,30.01,10.0,South,5.8,-,N/A,,Clear,180,2013-07-06 13:52:00
9:52 AM,78.1,66.0,66,30.00,10.0,SSW,8.1,-,N/A,,Clear,200,2013-07-06 14:52:00
10:52 AM,80.1,68.0,67,30.00,10.0,SE,6.9,-,N/A,,Clear,140,2013-07-06 15:52:00
11:52 AM,82.9,69.1,63,29.98,10.0,South,8.1,-,N/A,,Clear,170,2013-07-06 16:52:00
12:52 PM,84.9,68.0,57,29.96,10.0,SSE,10.4,-,N/A,,Clear,160,2013-07-06 17:52:00
1:52 PM,86.0,66.9,53,29.95,10.0,SE,15.0,19.6,N/A,,Clear,140,2013-07-06 18:52:00
2:52 PM,87.1,66.9,51,29.95,10.0,SSE,11.5,-,N/A,,Clear,160,2013-07-06 19:52:00
3:52 PM,87.1,66.0,49,29.94,10.0,SSE,11.5,-,N/A,,Clear,160,2013-07-06 20:52:00
4:52 PM,87.1,66.9,51,29.93,10.0,SSE,11.5,-,N/A,,Clear,150,2013-07-06 21:52:00
5:52 PM,86.0,66.0,51,29.92,10.0,SSE,8.1,-,N/A,,Clear,150,2013-07-06 22:52:00
6:52 PM,84.9,66.0,53,29.92,10.0,SSE,9.2,-,N/A,,Clear,160,2013-07-06 23:52:00
7:52 PM,82.0,68.0,62,29.92,10.0,SSE,8.1,-,N/A,,Clear,150,2013-07-07 00:52:00
8:52 PM,78.1,68.0,71,29.93,10.0,SSE,5.8,-,N/A,,Clear,150,2013-07-07 01:52:00
9:52 PM,75.9,68.0,76,29.95,10.0,SE,5.8,-,N/A,,Clear,130,2013-07-07 02:52:00
10:52 PM,73.9,66.9,79,29.95,10.0,SE,4.6,-,N/A,,Clear,140,2013-07-07 03:52:00
11:52 PM,73.9,66.9,79,29.96,10.0,SSE,6.9,-,N/A,,Clear,150,2013-07-07 04:52:00